Regional Weather Roundup
Issued by NWS Newport/Morehead, NC

Home | Current Version | Previous Version | Text Only | Print | Product List | Glossary On
Versions: 1 2 3 4 5 6 7 8 9 10 11 12 13 14 15 16 17 18 19 20 21 22 23 24 25 26 27 28 29 30 31 32 33 34 35 36 37 38 39 40 41 42 43 44 45 46 47 48 49 50
000
ASUS42 KMHX 181924
RWRMHX
WEATHER ROUNDUP FOR EASTERN NORTH CAROLINA
NATIONAL WEATHER SERVICE NEWPORT/MOREHEAD CITY NC
200 PM EST WED JAN 18 2017

NOTE: "FAIR" INDICATES FEW OR NO CLOUDS BELOW 12,000 FEET
WITH NO SIGNIFICANT WEATHER AND/OR OBSTRUCTIONS TO VISIBILITY

NCZ015>017-031-032-045>047-102-103-182000-
NORTH COAST

CITY           SKY/WX    TMP DP  RH WIND       PRES   REMARKS
EDENTON        MOSUNNY   70  45  41 N13G23    29.90R
ELIZABETH CITY PTSUNNY   54  45  71 N23       29.91R
KITTY HAWK     NOT AVBL
MANTEO         CLOUDY    56  48  75 N10G18    29.91R

$$

NCZ045>047-081-094-103-104-182000-
CENTRAL COAST

CITY           SKY/WX    TMP DP  RH WIND       PRES   REMARKS
FRISCO         CLOUDY    58  55  90 W8        29.85F FOG

$$

NCZ095-097-098-100-101-182000-
SOUTHERN COAST

CITY           SKY/WX    TMP DP  RH WIND       PRES   REMARKS
BEAUFORT       MOSUNNY   70  59  68 NW12      29.87F
CEDAR ISLAND   NOT AVBL
JACKSONVILLE   MOSUNNY   71  59  65 W18       29.89F
PINEY ISLAND   PTCLDY   N/A N/A N/A W13       29.86F
WILMINGTON     PTSUNNY   73  58  59 W13       29.91F


$$

NCZ011>013-027>030-043-044-078>080-089-090>093-098-182000-
COASTAL PLAIN

CITY           SKY/WX    TMP DP  RH WIND       PRES   REMARKS
AHOSKIE          N/A     65  41  41 NW8G18    29.91S
CLINTON        MOSUNNY   72  52  49 NW12G21   29.93S
ELIZABETHTOWN  MOSUNNY   75  53  47 W18       29.93S
GOLDSBORO      SUNNY     73  35  25 NW12G24   29.90R
GREENVILLE     SUNNY     70  37  30 NW14G25   29.93R
HAVELOCK       MOSUNNY   71  56  58 NW20G25   29.88F
KENANSVILLE    PTSUNNY   73  50  43 NW12G24   29.92S
KINSTON        SUNNY     73  39  29 NW14G26   29.91S
NEW BERN       SUNNY     72  54  53 NW15G25   29.88F
RICHLANDS      MOSUNNY   73  57  57 W9        29.91F
ROCKY MOUNT    SUNNY     68  35  29 NW17G35   29.93R
WASHINGTON     SUNNY     69  43  38 NW15G22   29.89R
WHITEVILLE     MOSUNNY   73  58  60 W7        29.93F

$$

AMZ130-135-150-152-154-156-158-170-250-252-270-ANZ085-086-088-633-658-670-182000-
MARINE OBSERVATIONS

STATION/POSITION TIME  TEMP    WIND        PRES    WAVE   SWELL
                       AIR SEA DIR/SP/G            HT/PER HT/PER
                 (UTC) (F)     (DEG/KT/KT) (MB)    (FT/S) (FT/S)
CHESAPEAKE LIGHT NOT AVBL
64 E VA BEACH    1850   53 57  340/ 23/ 27 1010.8    4/ 7   3/ 7
DUCK             1900   50 46  360/ 24/ 28 1011.9
2 E DUCK         1900      46                N/A     2/ 3
OREGON INLET     1900   54 51  350/ 14/ 20 1011.9
13E OREGON INLT  NOT AVBL
HATTERAS CG      1900   57 54  280/ 14/ 16 1010.5
DIAMOND BUOY     1850   64 72  290/ 21/ 25 1010.1    7/ 7   3/15
CAPE LOOKOUT     1900   62     260/ 13/ 16 1011.2
BEAUFORT LAB     1900   64 51  260/  5/  9 1010.6
30 SE NEW RVR IN 1908   61 62  270/ 14/ 17 1012.6
30 SE NEW RVR IN 1913      62                N/A     6/ 7
27 SE WRIGHTSVLE 1908   63 68  240/ 17/ 23 1012.5
5 SE WRIGHTSVLE  NOT AVBL
225 S CAPE HAT   1850   72 72  250/ 19/ 23 1014.5    7/ 6
41 SE CHARLESTON 1850   67 72  250/ 21/ 25 1015.2    4/ 5   2/ 9

$$




USA.gov is the U.S. government's official web portal to all federal, state and local government web resources and services.